Location: ??????
(41.3164°N, 22.6615°E)
Time: 23:04:45
(UTC+00:00)

COSMOS 1408 DEB - Visible Passes

Search period start: 10 August 2022 00:00
Search period end: 20 August 2022 00:00
Orbit: 376 x 420 km, 82.8° (Epoch: 10 August)

Date Brightness Start Highest point End Pass type
(mag) Time Alt. Az. Time Alt. Az. Time Alt. Az.
10 Aug ? 02:50:20 10° NNE 02:52:31 17° ENE 02:54:39 10° ESE visible
12 Aug ? 02:39:57 10° NNE 02:42:21 20° ENE 02:44:44 10° SE visible
14 Aug ? 02:28:47 10° NNE 02:31:20 22° ENE 02:33:51 10° SE visible
16 Aug ? 02:16:48 10° NNE 02:19:27 25° ENE 02:22:04 10° SE visible
17 Aug ? 02:56:44 10° NNW 02:59:46 52° W 03:02:45 10° S visible
18 Aug ? 02:03:58 10° NNE 02:06:42 27° ENE 02:09:23 10° SE visible
19 Aug ? 02:43:34 10° NNW 02:46:34 47° W 02:49:30 10° S visible
